User: anonymous   Login
Location: Cointrin
(46.2167°N, 6.1167°E)
Time: 08:57:52
(UTC+00:00)
Language:

Meteor 2-2 Rocket - Orbit

View from above orbital plane
View from above orbital plane
View from above satellite
View from above satellite

Ground track
Ground track

The orbit data is extracted from the following two-line orbital elements,

1 09662U 77002B   24259.94473146  .00000354  00000-0  22516-3 0  9990
2 09662  81.2728  63.7439 0051304 243.6638 115.9254 14.01154979437103
Epoch (UTC): 15 September 2024 22:40:24
Eccentricity: 0.0051304
inclination: 81.2728°
perigee height: 852 km
apogee height: 927 km
right ascension of ascending node: 63.7439°
argument of perigee: 243.6638°
revolutions per day: 14.01154979
mean anomaly at epoch: 115.9254°
orbit number at epoch: 43710

The dashed part of the orbit path shows where the satellite is in the earth's shadow,  

DLR